Weather History for Camp Pendleton, CA

Change the Weather History Date:

Monday, December 10, 2012

  Actual Average Record
Temperature  
Mean Temperature 55 °F -  
Max Temperature 75 °F 66 °F 82 °F (2004)
Min Temperature 35 °F 38 °F 30 °F (1997)
Degree Days  
Heating Degree Days 10    
Growing Degree Days 5 (Base 50)    
Moisture  
Dew Point 37 °F    
Average Humidity 71    
Maximum Humidity 93    
Minimum Humidity 21    
Precipitation  
Precipitation 0.00 in - - ()
Sea Level Pressure  
Sea Level Pressure 30.10 in    
Wind  
Wind Speed 2 mph (North)    
Max Wind Speed 8 mph    
Max Gust Speed -    
Visibility 6 miles    
Events      
Averages and records for this station are not official NWS values.
T = Trace of Precipitation, MM = Missing Value Source: NWS Daily Summary

Daily Weather History Graph

Daily Weather History Graph

Search for Another Location

Airport:

Trip Planner

Search our weather history database for the weather conditions in past years. The results will help you decide how hot, cold, wet, or windy it might be!

Date:

Astronomy

Dec. 10, 2012 Rise Set
Actual Time 6:42 AM PST 4:42 PM PST
Civil Twilight 6:15 AM PST 5:09 PM PST
Nautical Twilight 5:44 AM PST 5:40 PM PST
Astronomical Twilight 5:14 AM PST 6:10 PM PST
Moon 3:37 AM PST (12/10) 2:30 PM PST (12/10)
Length of Visible Light 10h 54m
Length of Day
9h 59m
Waning Crescent, 9% of the Moon is Illuminated
Dec 10
Waning Crescent
Dec 13
New
Dec 19
First Quarter
Dec 28
Full
Jan 4
Last Quarter

Hourly Weather History & Observations

Time (PST) Temp. Windchill Dew Point Humidity Pressure Visibility Wind Dir Wind Speed Gust Speed Precip Events Conditions
12:42 AM 41.0 °F 39.0 °F 37.4 °F 87% 30.12 in 1.5 mi North 3.5 mph - N/A   Partly Cloudy
12:46 AM 41.0 °F - 37.4 °F 87% 30.12 in 1.0 mi Calm Calm - N/A   Mist
12:51 AM 44.6 °F - 37.4 °F 76% 30.12 in 1.5 mi Calm Calm - N/A   Haze
12:54 AM 43.0 °F - 37.9 °F 82% 30.12 in 3.0 mi Calm Calm - N/A   Haze
1:15 AM 41.0 °F - 35.6 °F 81% 30.12 in 1.8 mi Calm Calm - N/A   Haze
1:24 AM 41.0 °F - 35.6 °F 81% 30.12 in 1.2 mi Calm Calm - N/A   Haze
1:31 AM 42.8 °F - 37.4 °F 81% 30.12 in 2.0 mi Calm Calm - N/A   Haze
1:39 AM 44.6 °F 43.1 °F 39.2 °F 81% 30.12 in 7.0 mi NE 3.5 mph - N/A   Clear
1:54 AM 43.0 °F 40.3 °F 37.9 °F 82% 30.12 in 6.0 mi NNE 4.6 mph - N/A   Haze
2:22 AM 39.2 °F 37.0 °F 37.4 °F 93% 30.12 in 1.2 mi West 3.5 mph - N/A   Partly Cloudy
2:24 AM 39.2 °F 37.0 °F 35.6 °F 87% 30.13 in 0.8 mi West 3.5 mph - N/A   Mist
2:38 AM 41.0 °F - 35.6 °F 81% 30.13 in 1.2 mi Calm Calm - N/A   Haze
2:40 AM 41.0 °F - 35.6 °F 81% 30.13 in 2.5 mi Calm Calm - N/A   Haze
2:54 AM 41.0 °F - 37.0 °F 86% 30.12 in 2.5 mi Calm Calm - N/A   Partly Cloudy
3:01 AM 42.8 °F - 37.4 °F 81% 30.12 in 6.0 mi Calm Calm - N/A   Haze
3:12 AM 39.2 °F - 35.6 °F 87% 30.12 in 6.0 mi Calm Calm - N/A   Partly Cloudy
3:29 AM 39.2 °F 37.0 °F 33.8 °F 81% 30.11 in 2.0 mi NE 3.5 mph - N/A   Haze
3:39 AM 42.8 °F - 37.4 °F 81% 30.11 in 7.0 mi Calm Calm - N/A   Clear
3:54 AM 39.9 °F - 36.0 °F 86% 30.11 in 5.0 mi Calm Calm - N/A   Clear
4:54 AM 39.0 °F - 34.0 °F 82% 30.10 in 6.0 mi Calm Calm - N/A   Haze
5:09 AM 35.6 °F - 33.8 °F 93% 30.10 in 1.8 mi Calm Calm - N/A   Clear
5:18 AM 37.4 °F - 33.8 °F 87% 30.10 in 3.0 mi Calm Calm - N/A   Haze
5:54 AM 37.0 °F - 32.0 °F 82% 30.10 in 8.0 mi Calm Calm - N/A   Clear
6:54 AM 39.0 °F - 34.0 °F 82% 30.12 in 8.0 mi Calm Calm - N/A   Clear
7:54 AM 43.0 °F - 39.9 °F 89% 30.13 in 10.0 mi Calm Calm - N/A   Clear
8:54 AM 54.0 °F - 43.0 °F 66% 30.13 in 10.0 mi Calm Calm - N/A   Clear
9:54 AM 63.0 °F - 39.9 °F 43% 30.13 in 10.0 mi Calm Calm - N/A   Clear
10:54 AM 72.0 °F - 32.0 °F 23% 30.12 in 10.0 mi South 3.5 mph - N/A   Clear
11:54 AM 73.0 °F - 41.0 °F 31% 30.09 in 10.0 mi SSW 4.6 mph - N/A   Clear
12:54 PM 73.9 °F - 34.0 °F 23% 30.06 in 10.0 mi SSW 8.1 mph - N/A   Clear
1:54 PM 75.0 °F - 34.0 °F 22% 30.05 in 10.0 mi Variable 3.5 mph - N/A   Clear
2:54 PM 73.9 °F - 30.9 °F 21% 30.04 in 10.0 mi WSW 5.8 mph - N/A   Clear
3:54 PM 70.0 °F - 35.1 °F 28% 30.03 in 10.0 mi SW 4.6 mph - N/A   Clear
4:54 PM 64.0 °F - 48.9 °F 58% 30.03 in 6.0 mi SSW 4.6 mph - N/A   Haze
5:54 PM 59.0 °F - 48.0 °F 67% 30.05 in 6.0 mi Calm Calm - N/A   Haze
6:54 PM 54.0 °F - 45.0 °F 72% 30.07 in 8.0 mi NE 4.6 mph - N/A   Clear
7:54 PM 50.0 °F - 39.9 °F 68% 30.07 in 10.0 mi NE 3.5 mph - N/A   Clear
8:29 PM 53.6 °F - 39.2 °F 58% 30.07 in 10.0 mi NE 4.6 mph - N/A   Scattered Clouds
8:54 PM 48.9 °F - 42.1 °F 77% 30.07 in 9.0 mi Calm Calm - N/A   Scattered Clouds
9:54 PM 48.9 °F - 39.9 °F 71% 30.07 in 10.0 mi Calm Calm - N/A   Partly Cloudy
10:54 PM 46.0 °F - 37.9 °F 73% 30.07 in 10.0 mi Calm Calm - N/A   Clear
11:54 PM 45.0 °F 43.5 °F 37.9 °F 76% 30.07 in 10.0 mi NE 3.5 mph - N/A   Clear